Wind_Speed
17 18 17 16 16 16 17 17 17 19 23 25 25 24 21 19 18 18 18 19 21 21 20 19 18 17 16 15 16 16 17 18 20 21 22 22 22 22 21 20 20 19
18 20 19 18 18 18 19 19 20 22 24 26 27 26 25 24 23 21 20 20 21 22 21 20 18 17 16 15 15 15 16 17 19 20 21 21 20 19 18 17 17 16
18 19 20 19 18 17 17 18 20 23 25 29 31 30 28 27 26 24 23 22 21 22 21 21 19 17 15 14 14 14 15 16 18 19 19 19 19 18 17 17 16 15
17 18 18 17 15 14 14 14 16 19 23 26 31 32 29 28 27 27 25 23 21 21 21 20 18 16 15 13 13 13 14 15 16 16 17 17 18 18 17 17 17 16
17 18 18 16 14 13 13 14 16 18 20 22 23 28 28 29 29 28 25 23 21 20 20 19 17 16 14 13 13 13 13 13 14 15 16 17 17 17 17 17 17 17
18 17 16 14 12 11 12 13 15 17 17 17 18 20 21 23 26 25 24 22 21 20 19 18 17 16 15 15 14 13 13 13 14 15 16 16 17 17 18 18 18 17
19 16 14 12 11 11 11 13 15 16 15 14 15 16 15 16 18 19 19 20 19 19 18 17 17 17 16 16 15 14 14 14 14 14 15 15 16 16 17 17 17 17
19 16 14 12 12 12 12 13 15 16 16 15 14 14 14 14 15 16 17 17 18 18 19 19 19 19 18 17 16 15 14 14 14 14 14 14 15 15 15 16 16 16
18 17 15 13 13 13 13 13 14 15 16 15 14 14 14 14 14 14 15 16 17 18 18 19 20 20 19 18 17 16 15 15 15 15 15 15 15 15 15 15 14 14
17 16 15 13 13 13 13 13 14 14 14 13 14 14 15 15 15 15 15 16 18 19 19 20 20 21 20 19 18 18 17 17 17 17 17 16 16 16 16 16 15 15
17 17 15 14 13 13 13 13 14 14 14 14 14 15 16 17 17 17 18 19 20 21 22 22 21 20 20 20 20 19 19 19 20 20 19 18 17 18 18 18 18 18
19 17 16 14 13 13 13 14 14 15 15 16 16 17 17 18 18 19 20 21 22 22 22 23 23 22 21 20 20 19 20 21 22 22 22 21 20 20 21 21 22 22
21 19 18 16 16 16 15 16 16 16 17 17 17 18 19 20 21 21 22 22 22 23 24 24 25 25 24 22 21 20 20 22 24 25 25 25 24 24 24 24 25 25
24 23 21 20 19 19 19 19 19 20 20 20 20 20 21 22 24 24 24 24 24 25 26 26 26 27 27 25 24 23 22 23 25 26 27 28 28 28 27 28 28 28
25 25 25 25 24 24 23 23 24 24 24 24 25 25 25 26 26 26 25 24 24 24 25 26 27 29 29 27 26 25 24 24 25 26 27 28 29 29 29 30 30 29
27 27 27 28 28 29 29 29 29 29 29 29 29 29 29 29 29 29 27 26 26 26 26 27 28 30 31 29 28 29 28 26 24 26 28 28 27 28 30 31 32 31
32 32 32 32 32 33 33 33 34 34 34 33 32 32 32 32 32 33 32 32 32 32 31 31 32 33 32 32 32 32 30 27 24 25 29 28 25 26 28 30 32 33
36 37 38 37 37 37 37 37 37 37 37 37 37 36 36 36 36 36 36 36 37 36 35 34 34 34 34 36 37 35 31 28 27 28 30 31 30 30 30 30 31 33
40 41 42 42 43 43 42 41 40 40 41 41 41 41 41 40 39 39 39 39 39 39 37 35 35 36 37 37 37 35 34 33 34 33 34 35 35 34 33 33 35 36
44 45 45 46 46 46 45 45 43 41 40 40 40 41 42 42 42 42 42 41 41 41 41 40 39 39 40 39 37 38 39 40 39 37 36 36 36 35 34 33 34 35
46 47 47 47 47 46 45 44 41 38 37 37 38 39 40 42 43 43 44 43 43 43 43 43 42 42 43 43 42 40 41 41 40 38 37 36 37 36 34 31 31 32
44 43 42 43 42 41 39 38 37 38 39 40 40 40 41 42 43 44 44 45 45 45 45 46 46 45 45 45 44 43 42 42 41 39 38 37 37 35 33 31 31 32
43 42 41 39 38 38 38 39 42 44 45 44 43 43 43 44 45 45 46 46 47 46 46 46 47 47 47 47 46 45 44 44 42 40 38 38 37 35 34 33 34 34
48 49 49 48 47 47 48 49 49 49 48 47 47 47 47 48 48 48 47 47 47 46 46 44 45 48 47 47 48 48 46 45 43 41 39 39 39 38 37 36 36 37
56 56 57 57 57 57 57 57 56 55 54 53 52 52 52 52 51 50 49 48 47 48 48 44 42 43 43 41 42 42 39 38 39 40 40 41 42 41 41 40 40 41
62 62 62 62 63 63 63 63 62 61 59 58 57 56 55 55 53 51 49 48 47 49 50 46 40 38 38 37 37 37 37 38 40 43 43 43 44 44 44 44 43 44
Wind_Direction
282 279 277 278 279 278 279 281 284 286 287 285 280 275 272 274 279 282 282 281 280 280 277 270 264 261 263 266 270 274 278 281 284 284 283 282 281 280 280 279 278 277
268 269 270 273 278 280 281 283 286 287 286 284 280 276 273 274 278 280 281 280 279 278 276 271 266 262 263 267 271 276 281 283 284 283 282 281 281 281 281 281 281 281
265 271 273 276 283 289 291 293 293 293 291 283 273 270 271 272 274 276 276 274 274 274 273 269 266 263 262 265 270 277 281 282 281 280 279 279 280 280 280 280 279 279
267 273 277 282 291 299 302 302 302 305 308 294 271 261 263 268 272 273 271 267 268 269 268 265 262 258 258 260 266 274 278 280 281 281 281 281 281 281 280 280 279 278
269 273 279 287 295 300 302 304 307 308 316 313 285 264 263 265 265 265 263 261 264 266 263 259 256 253 253 255 260 266 272 278 282 284 286 286 286 286 285 284 284 283
266 269 274 279 283 290 294 298 304 303 306 313 301 283 275 266 260 258 257 257 260 261 258 256 253 251 251 252 255 261 267 274 278 281 284 285 286 286 285 285 284 283
261 265 267 268 271 279 285 289 295 298 298 298 297 294 286 271 263 261 258 255 256 257 257 256 255 253 252 252 254 258 262 267 271 274 277 278 280 280 280 281 281 281
261 263 263 268 277 281 285 291 296 301 302 296 291 289 283 273 268 264 258 255 256 257 258 258 257 255 252 251 253 255 258 260 263 265 267 269 271 272 273 275 276 278
263 265 265 271 278 281 285 290 295 303 306 297 284 280 277 272 267 264 261 259 258 259 261 260 258 254 251 250 250 251 252 256 258 259 260 262 263 263 264 266 268 270
265 268 270 271 272 275 279 282 287 293 297 290 281 276 275 271 266 262 260 260 260 262 262 261 258 255 253 252 251 250 250 252 254 256 257 257 257 258 258 258 261 263
267 272 276 276 272 271 271 274 281 284 283 280 277 274 272 273 271 266 261 259 260 261 261 259 257 257 257 256 255 254 255 255 255 254 254 254 254 255 255 255 256 257
271 276 278 274 267 264 266 270 276 279 278 277 274 270 270 272 275 274 269 265 264 265 265 261 257 256 256 254 253 253 255 257 258 257 256 256 255 255 254 255 255 256
273 275 275 271 264 261 264 268 272 275 276 275 273 271 272 275 278 278 276 272 267 266 266 265 259 254 251 249 250 252 254 258 260 259 257 256 256 257 257 256 256 256
275 275 276 274 269 267 267 268 269 272 273 273 273 272 274 277 279 278 276 273 270 268 268 267 261 254 250 248 250 253 255 257 262 263 261 258 257 257 258 258 258 259
274 276 278 278 277 275 273 271 271 271 272 272 273 273 274 275 277 277 275 272 271 271 272 270 263 256 251 250 251 254 253 255 262 265 261 256 255 256 257 258 259 261
271 273 276 277 277 277 276 275 274 273 272 272 272 272 274 274 273 273 273 272 271 271 272 273 268 259 253 252 254 255 255 258 263 262 259 257 256 259 260 259 260 261
270 270 270 271 272 273 274 274 274 274 274 272 271 272 272 272 271 270 271 271 269 269 270 272 270 264 256 253 256 257 257 259 259 257 260 263 262 263 264 261 259 260
268 267 267 266 266 267 268 269 270 271 272 272 272 272 271 270 270 270 270 269 269 269 269 269 270 268 260 254 257 257 253 256 261 261 262 266 266 266 266 262 261 261
268 267 266 265 264 264 264 264 266 267 268 270 271 271 270 270 270 270 270 269 269 270 268 264 264 266 263 258 256 254 252 258 267 267 265 267 269 268 267 264 263 264
271 270 268 267 265 263 263 263 264 265 266 267 269 270 270 269 269 269 269 268 268 268 266 262 260 261 263 262 257 255 257 263 267 267 266 267 268 269 268 266 266 266
273 272 270 268 267 266 265 264 264 264 267 269 271 272 272 271 271 269 268 267 266 265 264 261 259 258 259 260 260 261 263 265 266 267 266 265 265 267 268 267 266 266
273 273 271 269 267 266 264 263 264 267 272 273 273 273 273 274 274 272 269 266 264 263 261 259 259 259 258 259 261 264 265 266 265 264 264 264 263 264 264 265 265 266
271 272 272 270 267 266 266 268 270 273 275 273 272 271 271 272 273 272 270 266 263 261 260 260 261 261 260 259 260 261 263 264 262 260 260 261 262 261 262 264 266 268
271 271 271 269 268 267 268 269 271 272 272 271 270 270 270 271 271 271 269 266 262 259 258 260 262 263 262 259 257 257 258 259 258 256 257 259 260 261 263 266 270 273
271 270 270 270 269 268 268 268 269 269 269 269 268 268 269 269 269 269 266 263 261 257 256 258 261 261 259 255 251 249 249 250 250 252 255 259 260 261 265 269 273 276
270 269 269 269 269 269 269 270 270 270 270 270 270 269 269 268 267 265 263 260 258 256 255 255 255 253 251 250 248 247 247 250 254 257 260 262 263 264 267 270 273 276
Height
5768 5767 5767 5766 5765 5765 5766 5766 5767 5767 5766 5765 5765 5765 5765 5766 5766 5767 5767 5767 5767 5767 5767 5767 5767 5766 5766 5766 5766 5766 5767 5767 5767 5767 5768 5768 5768 5768 5768 5768 5768 5768
5765 5764 5764 5764 5764 5763 5763 5764 5765 5765 5764 5764 5763 5763 5763 5763 5764 5764 5765 5765 5765 5765 5766 5766 5765 5765 5765 5765 5765 5765 5765 5765 5765 5766 5766 5766 5767 5767 5767 5767 5767 5767
5762 5762 5763 5763 5762 5761 5762 5762 5762 5763 5762 5761 5760 5760 5760 5761 5761 5762 5762 5762 5763 5763 5763 5764 5764 5764 5764 5764 5764 5764 5764 5764 5764 5764 5765 5765 5765 5765 5765 5765 5765 5765
5760 5761 5761 5762 5761 5760 5760 5760 5760 5760 5759 5757 5756 5756 5758 5758 5758 5759 5760 5760 5760 5761 5761 5762 5762 5762 5762 5762 5762 5762 5763 5763 5763 5763 5763 5763 5763 5764 5764 5764 5764 5764
5758 5758 5759 5760 5759 5758 5758 5757 5757 5757 5756 5755 5753 5754 5755 5756 5756 5756 5757 5758 5758 5759 5759 5760 5760 5760 5761 5761 5761 5761 5761 5762 5762 5762 5762 5762 5762 5762 5762 5762 5762 5762
5757 5757 5757 5757 5756 5755 5755 5755 5754 5754 5754 5754 5753 5753 5753 5753 5753 5754 5754 5755 5756 5757 5757 5758 5758 5758 5759 5759 5759 5760 5760 5760 5760 5760 5760 5760 5760 5760 5760 5760 5760 5760
5755 5754 5754 5753 5752 5752 5752 5752 5752 5752 5752 5752 5752 5751 5751 5751 5752 5752 5752 5753 5754 5755 5755 5756 5756 5756 5757 5757 5757 5758 5758 5758 5758 5758 5758 5758 5758 5758 5758 5758 5758 5758
5751 5750 5750 5749 5749 5749 5749 5749 5749 5749 5749 5749 5749 5749 5749 5750 5750 5750 5751 5751 5752 5752 5753 5753 5754 5754 5754 5755 5755 5755 5756 5756 5756 5756 5756 5756 5756 5756 5756 5756 5756 5756
5746 5746 5746 5747 5747 5747 5747 5747 5747 5747 5747 5747 5747 5747 5748 5748 5748 5749 5749 5749 5750 5750 5751 5751 5752 5752 5752 5752 5752 5753 5753 5753 5753 5753 5754 5754 5754 5754 5754 5754 5754 5754
5743 5743 5744 5744 5744 5744 5744 5744 5744 5744 5745 5745 5745 5746 5746 5746 5747 5747 5747 5747 5748 5748 5749 5749 5749 5750 5750 5750 5751 5751 5751 5751 5751 5751 5752 5752 5752 5752 5752 5752 5752 5752
5740 5740 5740 5741 5741 5741 5741 5741 5742 5742 5743 5743 5744 5744 5745 5745 5745 5745 5745 5745 5745 5746 5746 5746 5747 5748 5749 5749 5749 5749 5749 5749 5749 5749 5750 5750 5750 5750 5750 5750 5750 5750
5736 5737 5737 5738 5738 5738 5739 5739 5739 5740 5741 5742 5742 5742 5743 5743 5743 5743 5743 5743 5743 5743 5743 5743 5744 5745 5746 5746 5747 5747 5747 5747 5747 5747 5748 5748 5748 5748 5748 5748 5748 5748
5733 5734 5735 5735 5736 5736 5736 5737 5737 5738 5739 5739 5740 5740 5740 5740 5740 5740 5740 5740 5740 5740 5740 5740 5741 5741 5742 5742 5743 5744 5744 5744 5744 5744 5744 5745 5745 5745 5745 5745 5745 5745
5730 5731 5732 5733 5732 5733 5733 5734 5735 5735 5736 5737 5737 5738 5738 5738 5738 5737 5737 5737 5738 5738 5738 5737 5737 5737 5738 5739 5739 5740 5741 5741 5741 5741 5741 5741 5741 5742 5742 5742 5742 5742
5727 5727 5728 5729 5729 5729 5730 5731 5731 5732 5733 5734 5734 5735 5735 5735 5735 5735 5735 5735 5735 5735 5735 5735 5735 5734 5735 5735 5735 5736 5736 5737 5737 5737 5737 5737 5737 5738 5738 5739 5739 5739
5724 5724 5724 5725 5725 5726 5726 5727 5727 5728 5729 5730 5731 5731 5732 5732 5732 5732 5732 5732 5732 5731 5731 5731 5731 5731 5731 5731 5731 5731 5732 5733 5734 5733 5732 5733 5734 5734 5735 5735 5735 5735
5720 5720 5721 5721 5722 5722 5723 5723 5723 5724 5724 5725 5726 5727 5728 5728 5728 5728 5728 5728 5728 5728 5728 5727 5727 5727 5727 5727 5726 5726 5727 5728 5729 5729 5728 5728 5730 5730 5731 5731 5731 5731
5716 5717 5717 5718 5718 5719 5719 5719 5719 5720 5720 5720 5721 5722 5723 5723 5723 5724 5723 5723 5723 5723 5724 5723 5722 5722 5723 5722 5722 5722 5723 5723 5724 5725 5725 5725 5725 5726 5726 5727 5727 5726
5712 5712 5712 5713 5713 5714 5714 5714 5715 5715 5716 5716 5716 5716 5717 5717 5718 5719 5719 5718 5718 5718 5719 5719 5719 5719 5718 5718 5717 5718 5718 5718 5719 5720 5720 5720 5720 5721 5721 5722 5722 5722
5705 5705 5706 5706 5707 5707 5708 5708 5709 5710 5710 5711 5711 5711 5711 5712 5712 5713 5713 5714 5714 5714 5713 5713 5714 5714 5712 5712 5712 5713 5713 5713 5714 5714 5715 5715 5715 5716 5716 5716 5716 5716
5699 5699 5699 5699 5699 5700 5701 5702 5703 5704 5704 5705 5705 5706 5706 5706 5706 5707 5708 5708 5708 5708 5708 5707 5707 5707 5706 5706 5707 5708 5708 5709 5709 5709 5710 5710 5710 5710 5710 5711 5711 5711
5693 5693 5692 5693 5693 5694 5694 5695 5697 5698 5698 5699 5699 5700 5700 5700 5701 5701 5702 5702 5702 5703 5703 5703 5702 5701 5701 5701 5701 5702 5703 5703 5703 5704 5704 5705 5705 5705 5705 5706 5706 5706
5687 5687 5687 5688 5688 5688 5689 5689 5690 5691 5692 5692 5693 5693 5693 5694 5694 5694 5695 5695 5696 5697 5698 5697 5696 5695 5695 5695 5696 5697 5697 5697 5697 5698 5698 5699 5699 5700 5700 5701 5701 5701
5680 5681 5682 5682 5682 5683 5683 5684 5684 5685 5685 5685 5686 5686 5687 5687 5687 5688 5688 5689 5689 5690 5692 5692 5690 5688 5688 5689 5690 5690 5691 5692 5691 5692 5693 5693 5694 5695 5695 5696 5696 5696
5673 5673 5674 5674 5675 5675 5676 5676 5677 5678 5678 5678 5679 5679 5679 5680 5680 5681 5681 5682 5683 5683 5685 5686 5685 5682 5681 5682 5682 5683 5685 5686 5686 5686 5687 5688 5688 5689 5690 5690 5691 5691
5664 5664 5665 5665 5665 5666 5666 5667 5668 5669 5670 5670 5671 5671 5671 5672 5673 5674 5674 5675 5676 5676 5677 5680 5680 5678 5676 5676 5676 5678 5679 5680 5680 5680 5681 5682 5682 5683 5684 5684 5685 5685